COSMOS 2461 (735)

Last updated on Nov. 12, 2019, 4:19 a.m. UTC

1 36401U 10007B   19315.52985090 -.00000056  00000-0  10000-3 0  9995
2 36401  65.8051  35.1898 0006086  80.0529 242.4276  2.13101884 75466
UTC
Height (km)
Latitude
Longitude
Inclination
Orbital Period
UTC large
Height (km)
Speed (km/s)
/
Latitude / Longitude
Inclination (degrees)
Orbital Period (minutes)
Azimuth
Elevation
Range (km)
Doppler Factor
iOS Compass Heading
iOS Angle

Next 30 passes for location: Hong Kong

Rise time Rise Azimuth (degrees) Set time Set Azimuth (degrees) Duration Max altitude (degrees)

No matching passes for this satellites